#datetime,building,power
2022-07-15T00:01:00,pth,1.20
2022-07-15T00:03:00,pth,2.40
2022-07-15T00:05:00,pth,2.40
2022-07-15T00:07:00,pth,1.20
2022-07-15T00:09:00,pth,2.40
2022-07-15T00:11:00,pth,2.40
2022-07-15T00:13:00,pth,2.40
2022-07-15T00:14:00,pth,1.20
2022-07-15T00:16:00,pth,1.20
2022-07-15T00:18:00,pth,2.40
2022-07-15T00:20:00,pth,2.40
2022-07-15T00:22:00,pth,1.20
2022-07-15T00:24:00,pth,2.40
2022-07-15T00:26:00,pth,2.40
2022-07-15T00:28:00,pth,2.40
2022-07-15T00:30:00,pth,1.20
2022-07-15T00:32:00,pth,2.40
2022-07-15T00:35:00,pth,2.40
2022-07-15T00:36:00,pth,1.20
2022-07-15T00:38:00,pth,1.20
2022-07-15T00:40:00,pth,2.40
2022-07-15T00:41:00,pth,1.20
2022-07-15T00:43:00,pth,1.20
2022-07-15T00:45:00,pth,2.40
2022-07-15T00:47:00,pth,1.20
2022-07-15T00:48:00,pth,1.20
2022-07-15T00:50:00,pth,2.40
2022-07-15T00:52:00,pth,1.20
2022-07-15T00:54:00,pth,2.40
2022-07-15T00:55:00,pth,1.20
2022-07-15T00:57:00,pth,1.20
2022-07-15T00:59:00,pth,2.40
2022-07-15T01:01:00,pth,1.20
2022-07-15T01:03:00,pth,2.40
2022-07-15T01:04:00,pth,1.20
2022-07-15T01:07:00,pth,2.40
2022-07-15T01:09:00,pth,1.20
2022-07-15T01:11:00,pth,2.40
2022-07-15T01:12:00,pth,1.20
2022-07-15T01:14:00,pth,1.20
2022-07-15T01:15:00,pth,1.20
2022-07-15T01:17:00,pth,2.40
2022-07-15T01:19:00,pth,1.20
2022-07-15T01:21:00,pth,2.40
2022-07-15T01:24:00,pth,2.40
2022-07-15T01:25:00,pth,1.20
2022-07-15T01:27:00,pth,1.20
2022-07-15T01:29:00,pth,2.40
2022-07-15T01:30:00,pth,1.20
2022-07-15T01:33:00,pth,2.40
2022-07-15T01:35:00,pth,1.20
2022-07-15T01:37:00,pth,2.40
2022-07-15T01:39:00,pth,1.20
2022-07-15T01:40:00,pth,1.20
2022-07-15T01:42:00,pth,2.40
2022-07-15T01:45:00,pth,2.40
2022-07-15T01:46:00,pth,1.20
2022-07-15T01:48:00,pth,1.20
2022-07-15T01:50:00,pth,2.40
2022-07-15T01:52:00,pth,1.20
2022-07-15T01:53:00,pth,1.20
2022-07-15T01:55:00,pth,2.40
2022-07-15T01:56:00,pth,1.20
2022-07-15T01:58:00,pth,2.40
2022-07-15T02:01:00,pth,2.40
2022-07-15T02:03:00,pth,2.40
2022-07-15T02:04:00,pth,1.20
2022-07-15T02:05:00,pth,1.20
2022-07-15T02:07:00,pth,1.20
2022-07-15T02:09:00,pth,2.40
2022-07-15T02:11:00,pth,2.40
2022-07-15T02:12:00,pth,1.20
2022-07-15T02:14:00,pth,1.20
2022-07-15T02:16:00,pth,2.40
2022-07-15T02:18:00,pth,2.40
2022-07-15T02:19:00,pth,1.20
2022-07-15T02:21:00,pth,1.20
2022-07-15T02:23:00,pth,2.40
2022-07-15T02:25:00,pth,2.40
2022-07-15T02:26:00,pth,1.20
2022-07-15T02:28:00,pth,1.20
2022-07-15T02:29:00,pth,1.20
2022-07-15T02:30:00,pth,1.20
2022-07-15T02:32:00,pth,2.40
2022-07-15T02:34:00,pth,1.20
2022-07-15T02:36:00,pth,2.40
2022-07-15T02:38:00,pth,2.40
2022-07-15T02:39:00,pth,1.20
2022-07-15T02:41:00,pth,1.20
2022-07-15T02:42:00,pth,1.20
2022-07-15T02:43:00,pth,1.20
2022-07-15T02:44:00,pth,1.20
2022-07-15T02:46:00,pth,2.40
2022-07-15T02:48:00,pth,1.20
2022-07-15T02:50:00,pth,2.40
2022-07-15T02:52:00,pth,2.40
2022-07-15T02:54:00,pth,1.20
2022-07-15T02:55:00,pth,1.20
2022-07-15T02:57:00,pth,1.20
2022-07-15T02:58:00,pth,1.20
2022-07-15T03:00:00,pth,2.40
2022-07-15T03:03:00,pth,2.40
2022-07-15T03:04:00,pth,1.20
2022-07-15T03:06:00,pth,1.20
2022-07-15T03:07:00,pth,1.20
2022-07-15T03:08:00,pth,1.20
2022-07-15T03:10:00,pth,1.20
2022-07-15T03:11:00,pth,1.20
2022-07-15T03:13:00,pth,2.40
2022-07-15T03:15:00,pth,1.20
2022-07-15T03:16:00,pth,1.20
2022-07-15T03:17:00,pth,1.20
2022-07-15T03:19:00,pth,1.20
2022-07-15T03:21:00,pth,2.40
2022-07-15T03:22:00,pth,1.20
2022-07-15T03:25:00,pth,2.40
2022-07-15T03:26:00,pth,1.20
2022-07-15T03:28:00,pth,1.20
2022-07-15T03:30:00,pth,2.40
2022-07-15T03:31:00,pth,1.20
2022-07-15T03:33:00,pth,1.20
2022-07-15T03:34:00,pth,1.20
2022-07-15T03:35:00,pth,1.20
2022-07-15T03:37:00,pth,1.20
2022-07-15T03:39:00,pth,2.40
2022-07-15T03:40:00,pth,1.20
2022-07-15T03:43:00,pth,2.40
2022-07-15T03:44:00,pth,1.20
2022-07-15T03:46:00,pth,1.20
2022-07-15T03:48:00,pth,2.40
2022-07-15T03:49:00,pth,1.20
2022-07-15T03:51:00,pth,1.20
2022-07-15T03:53:00,pth,2.40
2022-07-15T03:55:00,pth,1.20
2022-07-15T03:57:00,pth,2.40
2022-07-15T04:00:00,pth,2.40
2022-07-15T04:02:00,pth,1.20
2022-07-15T04:04:00,pth,2.40
2022-07-15T04:05:00,pth,1.20
2022-07-15T04:06:00,pth,1.20
2022-07-15T04:08:00,pth,1.20
2022-07-15T04:10:00,pth,2.40
2022-07-15T04:12:00,pth,1.20
2022-07-15T04:14:00,pth,2.40
2022-07-15T04:16:00,pth,1.20
2022-07-15T04:18:00,pth,2.40
2022-07-15T04:19:00,pth,1.20
2022-07-15T04:21:00,pth,1.20
2022-07-15T04:22:00,pth,1.20
2022-07-15T04:24:00,pth,2.40
2022-07-15T04:25:00,pth,1.20
2022-07-15T04:26:00,pth,1.20
2022-07-15T04:28:00,pth,1.20
2022-07-15T04:30:00,pth,2.40
2022-07-15T04:32:00,pth,2.40
2022-07-15T04:34:00,pth,1.20
2022-07-15T04:35:00,pth,1.20
2022-07-15T04:37:00,pth,2.40
2022-07-15T04:38:00,pth,1.20
2022-07-15T04:40:00,pth,2.40
2022-07-15T04:43:00,pth,2.40
2022-07-15T04:45:00,pth,2.40
2022-07-15T04:46:00,pth,1.20
2022-07-15T04:47:00,pth,1.20
2022-07-15T04:50:00,pth,2.40
2022-07-15T04:52:00,pth,2.40
2022-07-15T04:54:00,pth,2.40
2022-07-15T04:56:00,pth,1.20
2022-07-15T04:58:00,pth,2.40
2022-07-15T05:00:00,pth,2.40
2022-07-15T05:02:00,pth,1.20
2022-07-15T05:04:00,pth,2.40
2022-07-15T05:06:00,pth,2.40
2022-07-15T05:07:00,pth,1.20
2022-07-15T05:09:00,pth,1.20
2022-07-15T05:11:00,pth,2.40
2022-07-15T05:13:00,pth,2.40
2022-07-15T05:15:00,pth,1.20
2022-07-15T05:16:00,pth,1.20
2022-07-15T05:18:00,pth,2.40
2022-07-15T05:20:00,pth,2.40
2022-07-15T05:22:00,pth,1.20
2022-07-15T05:23:00,pth,1.20
2022-07-15T05:25:00,pth,1.20
2022-07-15T05:27:00,pth,2.40
2022-07-15T05:28:00,pth,1.20
2022-07-15T05:29:00,pth,1.20
2022-07-15T05:32:00,pth,2.40
2022-07-15T05:33:00,pth,1.20
2022-07-15T05:35:00,pth,1.20
2022-07-15T05:37:00,pth,2.40
2022-07-15T05:39:00,pth,1.20
2022-07-15T05:41:00,pth,2.40
2022-07-15T05:42:00,pth,1.20
2022-07-15T05:44:00,pth,1.20
2022-07-15T05:46:00,pth,2.40
2022-07-15T05:49:00,pth,2.40
2022-07-15T05:51:00,pth,1.20
2022-07-15T05:52:00,pth,1.20
2022-07-15T05:54:00,pth,2.40
2022-07-15T05:56:00,pth,1.20
2022-07-15T05:57:00,pth,1.20
2022-07-15T05:59:00,pth,2.40
2022-07-15T06:02:00,pth,2.40
2022-07-15T06:03:00,pth,1.20
2022-07-15T06:05:00,pth,1.20
2022-07-15T06:07:00,pth,1.20
2022-07-15T06:09:00,pth,2.40
2022-07-15T06:12:00,pth,1.20
2022-07-15T06:13:00,pth,1.20
2022-07-15T06:16:00,pth,1.20
2022-07-15T06:17:00,pth,1.20
2022-07-15T06:19:00,pth,1.20
2022-07-15T06:21:00,pth,1.20
2022-07-15T06:22:00,pth,1.20
2022-07-15T06:24:00,pth,1.20
2022-07-15T06:27:00,pth,2.40
2022-07-15T06:30:00,pth,1.20
2022-07-15T06:32:00,pth,1.20
2022-07-15T06:34:00,pth,1.20
2022-07-15T06:35:00,pth,1.20
2022-07-15T06:37:00,pth,1.20
2022-07-15T06:38:00,pth,1.20
2022-07-15T06:40:00,pth,1.20
2022-07-15T06:42:00,pth,1.20
2022-07-15T06:45:00,pth,2.40
2022-07-15T06:47:00,pth,1.20
2022-07-15T06:49:00,pth,1.20
2022-07-15T06:51:00,pth,1.20
2022-07-15T06:52:00,pth,1.20
2022-07-15T06:54:00,pth,1.20
2022-07-15T06:55:00,pth,1.20
2022-07-15T06:57:00,pth,1.20
2022-07-15T06:58:00,pth,1.20
2022-07-15T07:00:00,pth,1.20
2022-07-15T07:01:00,pth,1.20
2022-07-15T07:02:00,pth,1.20
2022-07-15T07:05:00,pth,2.40
2022-07-15T07:08:00,pth,2.40
2022-07-15T07:11:00,pth,2.40
2022-07-15T07:12:00,pth,1.20
2022-07-15T07:14:00,pth,3.60
2022-07-15T07:15:00,pth,2.40
2022-07-15T07:16:00,pth,2.40
2022-07-15T07:17:00,pth,1.20
2022-07-15T07:20:00,pth,2.40
2022-07-15T07:21:00,pth,1.20
2022-07-15T07:23:00,pth,1.20
2022-07-15T07:25:00,pth,2.40
2022-07-15T07:27:00,pth,1.20
2022-07-15T07:29:00,pth,2.40
2022-07-15T07:31:00,pth,2.40
2022-07-15T07:33:00,pth,2.40
2022-07-15T07:35:00,pth,1.20
2022-07-15T07:37:00,pth,2.40
2022-07-15T07:39:00,pth,2.40
2022-07-15T07:41:00,pth,1.20
2022-07-15T07:42:00,pth,1.20
2022-07-15T07:43:00,pth,1.20
2022-07-15T07:45:00,pth,2.40
2022-07-15T07:46:00,pth,1.20
2022-07-15T07:48:00,pth,2.40
2022-07-15T07:50:00,pth,1.20
2022-07-15T07:51:00,pth,1.20
2022-07-15T07:53:00,pth,2.40
2022-07-15T07:56:00,pth,2.40
2022-07-15T07:59:00,pth,2.40
2022-07-15T08:01:00,pth,1.20
2022-07-15T08:03:00,pth,1.20
2022-07-15T08:04:00,pth,1.20
2022-07-15T08:06:00,pth,1.20
2022-07-15T08:08:00,pth,1.20
2022-07-15T08:10:00,pth,2.40
2022-07-15T08:12:00,pth,1.20
2022-07-15T08:14:00,pth,1.20
2022-07-15T08:16:00,pth,1.20
2022-07-15T08:18:00,pth,1.20
2022-07-15T08:20:00,pth,1.20
2022-07-15T08:21:00,pth,1.20
2022-07-15T08:23:00,pth,1.20
2022-07-15T08:25:00,pth,1.20
2022-07-15T08:28:00,pth,1.20
2022-07-15T08:31:00,pth,1.20
2022-07-15T08:32:00,pth,1.20
2022-07-15T08:34:00,pth,1.20
2022-07-15T08:36:00,pth,1.20
2022-07-15T08:38:00,pth,1.20
2022-07-15T08:40:00,pth,1.20
2022-07-15T08:42:00,pth,1.20
2022-07-15T08:45:00,pth,1.20
2022-07-15T08:47:00,pth,1.20
2022-07-15T08:49:00,pth,1.20
2022-07-15T08:51:00,pth,1.20
2022-07-15T08:53:00,pth,1.20
2022-07-15T08:55:00,pth,1.20
2022-07-15T08:57:00,pth,1.20
2022-07-15T08:58:00,pth,1.20
2022-07-15T08:59:00,pth,1.20
2022-07-15T09:00:00,pth,1.20
2022-07-15T09:02:00,pth,2.40
2022-07-15T09:04:00,pth,2.40
2022-07-15T09:06:00,pth,1.20
2022-07-15T09:08:00,pth,2.40
2022-07-15T09:10:00,pth,1.20
2022-07-15T09:11:00,pth,1.20
2022-07-15T09:13:00,pth,1.20
2022-07-15T09:14:00,pth,1.20
2022-07-15T09:16:00,pth,1.20
2022-07-15T09:18:00,pth,1.20
2022-07-15T09:21:00,pth,2.40
2022-07-15T09:22:00,pth,1.20
2022-07-15T09:25:00,pth,1.20
2022-07-15T09:26:00,pth,1.20
2022-07-15T09:28:00,pth,1.20
2022-07-15T09:29:00,pth,1.20
2022-07-15T09:31:00,pth,2.40
2022-07-15T09:33:00,pth,1.20
2022-07-15T09:34:00,pth,1.20
2022-07-15T09:36:00,pth,1.20
2022-07-15T09:38:00,pth,1.20
2022-07-15T09:40:00,pth,2.40
2022-07-15T09:41:00,pth,1.20
2022-07-15T09:43:00,pth,1.20
2022-07-15T09:45:00,pth,1.20
2022-07-15T09:46:00,pth,1.20
2022-07-15T09:48:00,pth,2.40
2022-07-15T09:51:00,pth,1.20
2022-07-15T09:52:00,pth,1.20
2022-07-15T09:54:00,pth,1.20
2022-07-15T09:55:00,pth,1.20
2022-07-15T09:57:00,pth,2.40
2022-07-15T09:59:00,pth,2.40
2022-07-15T10:01:00,pth,2.40
2022-07-15T10:03:00,pth,1.20
2022-07-15T10:04:00,pth,1.20
2022-07-15T10:06:00,pth,2.40
2022-07-15T10:08:00,pth,2.40
2022-07-15T10:10:00,pth,1.20
2022-07-15T10:12:00,pth,1.20
2022-07-15T10:13:00,pth,1.20
2022-07-15T10:15:00,pth,1.20
2022-07-15T10:16:00,pth,1.20
2022-07-15T10:18:00,pth,1.20
2022-07-15T10:19:00,pth,1.20
2022-07-15T10:21:00,pth,1.20
2022-07-15T10:23:00,pth,1.20
2022-07-15T10:25:00,pth,2.40
2022-07-15T10:26:00,pth,2.40
2022-07-15T10:27:00,pth,1.20
2022-07-15T10:28:00,pth,1.20
2022-07-15T10:30:00,pth,1.20
2022-07-15T10:32:00,pth,2.40
2022-07-15T10:34:00,pth,1.20
2022-07-15T10:37:00,pth,3.60
2022-07-15T10:39:00,pth,4.80
2022-07-15T10:41:00,pth,3.60
2022-07-15T10:42:00,pth,2.40
2022-07-15T10:44:00,pth,3.60
2022-07-15T10:46:00,pth,2.40
2022-07-15T10:47:00,pth,1.20
2022-07-15T10:49:00,pth,1.20
2022-07-15T10:51:00,pth,1.20
2022-07-15T10:53:00,pth,1.20
2022-07-15T10:55:00,pth,2.40
2022-07-15T10:57:00,pth,1.20
2022-07-15T10:59:00,pth,1.20
2022-07-15T11:01:00,pth,1.20
2022-07-15T11:03:00,pth,2.40
2022-07-15T11:05:00,pth,2.40
2022-07-15T11:07:00,pth,1.20
2022-07-15T11:09:00,pth,1.20
2022-07-15T11:11:00,pth,1.20
2022-07-15T11:13:00,pth,2.40
2022-07-15T11:15:00,pth,1.20
2022-07-15T11:17:00,pth,1.20
2022-07-15T11:18:00,pth,1.20
2022-07-15T11:20:00,pth,1.20
2022-07-15T11:21:00,pth,1.20
2022-07-15T11:23:00,pth,1.20
2022-07-15T11:24:00,pth,1.20
2022-07-15T11:26:00,pth,1.20
2022-07-15T11:28:00,pth,1.20
2022-07-15T11:29:00,pth,1.20
2022-07-15T11:31:00,pth,2.40
2022-07-15T11:34:00,pth,1.20
2022-07-15T11:36:00,pth,1.20
2022-07-15T11:38:00,pth,1.20
2022-07-15T11:40:00,pth,2.40
2022-07-15T11:44:00,pth,1.20
2022-07-15T11:46:00,pth,2.40
2022-07-15T11:48:00,pth,1.20
2022-07-15T11:49:00,pth,1.20
2022-07-15T11:51:00,pth,1.20
2022-07-15T11:53:00,pth,1.20
2022-07-15T11:55:00,pth,1.20
2022-07-15T11:57:00,pth,2.40
2022-07-15T11:59:00,pth,1.20
2022-07-15T12:01:00,pth,1.20
2022-07-15T12:03:00,pth,1.20
2022-07-15T12:05:00,pth,2.40
2022-07-15T12:06:00,pth,1.20
2022-07-15T12:08:00,pth,1.20
2022-07-15T12:10:00,pth,1.20
2022-07-15T12:12:00,pth,1.20
2022-07-15T12:13:00,pth,1.20
2022-07-15T12:14:00,pth,1.20
2022-07-15T12:16:00,pth,1.20
2022-07-15T12:17:00,pth,1.20
2022-07-15T12:19:00,pth,1.20
2022-07-15T12:20:00,pth,1.20
2022-07-15T12:22:00,pth,1.20
2022-07-15T12:23:00,pth,1.20
2022-07-15T12:25:00,pth,1.20
2022-07-15T12:26:00,pth,1.20
2022-07-15T12:28:00,pth,2.40
2022-07-15T12:32:00,pth,2.40
2022-07-15T12:33:00,pth,2.40
2022-07-15T12:35:00,pth,1.20
2022-07-15T12:37:00,pth,2.40
2022-07-15T12:38:00,pth,1.20
2022-07-15T12:40:00,pth,1.20
2022-07-15T12:42:00,pth,2.40
2022-07-15T12:44:00,pth,2.40
2022-07-15T12:46:00,pth,2.40
2022-07-15T12:48:00,pth,3.60
2022-07-15T12:50:00,pth,2.40
2022-07-15T12:52:00,pth,3.60
2022-07-15T12:54:00,pth,2.40
2022-07-15T12:55:00,pth,1.20
2022-07-15T12:57:00,pth,2.40
2022-07-15T12:58:00,pth,1.20
2022-07-15T13:00:00,pth,3.60
2022-07-15T13:02:00,pth,2.40
2022-07-15T13:03:00,pth,1.20
2022-07-15T13:05:00,pth,2.40
2022-07-15T13:07:00,pth,2.40
2022-07-15T13:09:00,pth,6.00
2022-07-15T13:11:00,pth,3.60
2022-07-15T13:12:00,pth,1.20
2022-07-15T13:14:00,pth,1.20
2022-07-15T13:16:00,pth,2.40
2022-07-15T13:18:00,pth,2.40
2022-07-15T13:21:00,pth,2.40
2022-07-15T13:23:00,pth,1.20
2022-07-15T13:25:00,pth,2.40
2022-07-15T13:26:00,pth,1.20
2022-07-15T13:28:00,pth,2.40
2022-07-15T13:29:00,pth,2.40
2022-07-15T13:31:00,pth,6.00
2022-07-15T13:33:00,pth,8.40
2022-07-15T13:35:00,pth,7.20
2022-07-15T13:36:00,pth,3.60
2022-07-15T13:38:00,pth,6.00
2022-07-15T13:40:00,pth,6.00
2022-07-15T13:42:00,pth,4.80
2022-07-15T13:44:00,pth,2.40
2022-07-15T13:46:00,pth,2.40
2022-07-15T13:48:00,pth,3.60
2022-07-15T13:50:00,pth,2.40
2022-07-15T13:51:00,pth,1.20
2022-07-15T13:53:00,pth,2.40
2022-07-15T13:55:00,pth,2.40
2022-07-15T13:56:00,pth,1.20
2022-07-15T13:58:00,pth,3.60
2022-07-15T14:00:00,pth,1.20
2022-07-15T14:01:00,pth,1.20
2022-07-15T14:03:00,pth,2.40
2022-07-15T14:05:00,pth,3.60
2022-07-15T14:07:00,pth,2.40
2022-07-15T14:09:00,pth,3.60
2022-07-15T14:11:00,pth,2.40
2022-07-15T14:12:00,pth,2.40
2022-07-15T14:14:00,pth,2.40
2022-07-15T14:16:00,pth,2.40
2022-07-15T14:17:00,pth,1.20
2022-07-15T14:19:00,pth,2.40
2022-07-15T14:20:00,pth,2.40
2022-07-15T14:22:00,pth,3.60
2022-07-15T14:24:00,pth,2.40
2022-07-15T14:26:00,pth,2.40
2022-07-15T14:28:00,pth,2.40
2022-07-15T14:30:00,pth,3.60
2022-07-15T14:31:00,pth,1.20
2022-07-15T14:33:00,pth,1.20
2022-07-15T14:35:00,pth,2.40
2022-07-15T14:37:00,pth,1.20
2022-07-15T14:39:00,pth,2.40
2022-07-15T14:40:00,pth,1.20
2022-07-15T14:42:00,pth,2.40
2022-07-15T14:43:00,pth,1.20
2022-07-15T14:44:00,pth,2.40
2022-07-15T14:46:00,pth,2.40
2022-07-15T14:48:00,pth,2.40
2022-07-15T14:49:00,pth,1.20
2022-07-15T14:51:00,pth,3.60
2022-07-15T14:53:00,pth,3.60
2022-07-15T14:54:00,pth,1.20
2022-07-15T14:55:00,pth,1.20
2022-07-15T14:56:00,pth,1.20
2022-07-15T14:58:00,pth,2.40
2022-07-15T15:00:00,pth,3.60
2022-07-15T15:01:00,pth,1.20
2022-07-15T15:03:00,pth,3.60
2022-07-15T15:04:00,pth,1.20
2022-07-15T15:06:00,pth,2.40
2022-07-15T15:08:00,pth,1.20
2022-07-15T15:09:00,pth,1.20
2022-07-15T15:10:00,pth,1.20
2022-07-15T15:12:00,pth,2.40
2022-07-15T15:14:00,pth,2.40
2022-07-15T15:15:00,pth,1.20
2022-07-15T15:17:00,pth,2.40
2022-07-15T15:19:00,pth,3.60
2022-07-15T15:21:00,pth,2.40
2022-07-15T15:23:00,pth,2.40
2022-07-15T15:25:00,pth,2.40
2022-07-15T15:26:00,pth,2.40
2022-07-15T15:28:00,pth,2.40
2022-07-15T15:30:00,pth,3.60
2022-07-15T15:32:00,pth,2.40
2022-07-15T15:34:00,pth,1.20
2022-07-15T15:36:00,pth,2.40
2022-07-15T15:37:00,pth,2.40
2022-07-15T15:39:00,pth,1.20
2022-07-15T15:41:00,pth,2.40
2022-07-15T15:42:00,pth,1.20
2022-07-15T15:43:00,pth,1.20
2022-07-15T15:45:00,pth,3.60
2022-07-15T15:47:00,pth,2.40
2022-07-15T15:49:00,pth,3.60
2022-07-15T15:50:00,pth,1.20
2022-07-15T15:52:00,pth,2.40
2022-07-15T15:54:00,pth,2.40
2022-07-15T15:56:00,pth,2.40
2022-07-15T15:58:00,pth,1.20
2022-07-15T16:00:00,pth,1.20
2022-07-15T16:02:00,pth,2.40
2022-07-15T16:04:00,pth,2.40
2022-07-15T16:06:00,pth,2.40
2022-07-15T16:07:00,pth,1.20
2022-07-15T16:09:00,pth,2.40
2022-07-15T16:11:00,pth,3.60
2022-07-15T16:13:00,pth,2.40
2022-07-15T16:14:00,pth,1.20
2022-07-15T16:16:00,pth,1.20
2022-07-15T16:18:00,pth,1.20
2022-07-15T16:20:00,pth,2.40
2022-07-15T16:22:00,pth,2.40
2022-07-15T16:24:00,pth,1.20
2022-07-15T16:26:00,pth,2.40
2022-07-15T16:27:00,pth,1.20
2022-07-15T16:29:00,pth,2.40
2022-07-15T16:31:00,pth,3.60
2022-07-15T16:33:00,pth,1.20
2022-07-15T16:34:00,pth,1.20
2022-07-15T16:36:00,pth,2.40
2022-07-15T16:38:00,pth,2.40
2022-07-15T16:40:00,pth,2.40
2022-07-15T16:43:00,pth,2.40
2022-07-15T16:45:00,pth,2.40
2022-07-15T16:46:00,pth,1.20
2022-07-15T16:48:00,pth,3.60
2022-07-15T16:50:00,pth,2.40
2022-07-15T16:51:00,pth,1.20
2022-07-15T16:53:00,pth,1.20
2022-07-15T16:54:00,pth,1.20
2022-07-15T16:56:00,pth,2.40
2022-07-15T16:58:00,pth,2.40
2022-07-15T17:00:00,pth,1.20
2022-07-15T17:02:00,pth,3.60
2022-07-15T17:03:00,pth,2.40
2022-07-15T17:05:00,pth,3.60
2022-07-15T17:07:00,pth,2.40
2022-07-15T17:09:00,pth,2.40
2022-07-15T17:11:00,pth,1.20
2022-07-15T17:13:00,pth,2.40
2022-07-15T17:15:00,pth,2.40
2022-07-15T17:16:00,pth,1.20
2022-07-15T17:18:00,pth,1.20
2022-07-15T17:20:00,pth,1.20
2022-07-15T17:21:00,pth,1.20
2022-07-15T17:23:00,pth,3.60
2022-07-15T17:25:00,pth,2.40
2022-07-15T17:27:00,pth,2.40
2022-07-15T17:29:00,pth,2.40
2022-07-15T17:31:00,pth,1.20
2022-07-15T17:33:00,pth,2.40
2022-07-15T17:35:00,pth,1.20
2022-07-15T17:37:00,pth,1.20
2022-07-15T17:39:00,pth,2.40
2022-07-15T17:40:00,pth,1.20
2022-07-15T17:41:00,pth,1.20
2022-07-15T17:43:00,pth,2.40
2022-07-15T17:45:00,pth,2.40
2022-07-15T17:48:00,pth,1.20
2022-07-15T17:49:00,pth,1.20
2022-07-15T17:51:00,pth,1.20
2022-07-15T17:52:00,pth,1.20
2022-07-15T17:54:00,pth,1.20
2022-07-15T17:55:00,pth,1.20
2022-07-15T17:56:00,pth,1.20
2022-07-15T17:58:00,pth,2.40
2022-07-15T17:59:00,pth,2.40
2022-07-15T18:01:00,pth,2.40
2022-07-15T18:02:00,pth,2.40
2022-07-15T18:03:00,pth,1.20
2022-07-15T18:05:00,pth,2.40
2022-07-15T18:07:00,pth,1.20
2022-07-15T18:09:00,pth,2.40
2022-07-15T18:11:00,pth,2.40
2022-07-15T18:13:00,pth,2.40
2022-07-15T18:15:00,pth,2.40
2022-07-15T18:17:00,pth,2.40
2022-07-15T18:19:00,pth,3.60
2022-07-15T18:21:00,pth,2.40
2022-07-15T18:23:00,pth,1.20
2022-07-15T18:25:00,pth,2.40
2022-07-15T18:26:00,pth,1.20
2022-07-15T18:28:00,pth,2.40
2022-07-15T18:29:00,pth,1.20
2022-07-15T18:32:00,pth,2.40
2022-07-15T18:34:00,pth,1.20
2022-07-15T18:35:00,pth,1.20
2022-07-15T18:36:00,pth,1.20
2022-07-15T18:38:00,pth,2.40
2022-07-15T18:40:00,pth,1.20
2022-07-15T18:42:00,pth,1.20
2022-07-15T18:44:00,pth,1.20
2022-07-15T18:46:00,pth,2.40
2022-07-15T18:48:00,pth,2.40
2022-07-15T18:49:00,pth,1.20
2022-07-15T18:51:00,pth,2.40
2022-07-15T18:54:00,pth,2.40
2022-07-15T18:56:00,pth,1.20
2022-07-15T18:58:00,pth,2.40
2022-07-15T19:00:00,pth,2.40
2022-07-15T19:03:00,pth,2.40
2022-07-15T19:05:00,pth,1.20
2022-07-15T19:07:00,pth,1.20
2022-07-15T19:09:00,pth,2.40
2022-07-15T19:11:00,pth,1.20
2022-07-15T19:12:00,pth,1.20
2022-07-15T19:14:00,pth,1.20
2022-07-15T19:16:00,pth,2.40
2022-07-15T19:18:00,pth,1.20
2022-07-15T19:20:00,pth,2.40
2022-07-15T19:21:00,pth,3.60
2022-07-15T19:23:00,pth,4.80
2022-07-15T19:25:00,pth,3.60
2022-07-15T19:26:00,pth,1.20
2022-07-15T19:28:00,pth,2.40
2022-07-15T19:30:00,pth,3.60
2022-07-15T19:32:00,pth,4.80
2022-07-15T19:34:00,pth,2.40
2022-07-15T19:36:00,pth,2.40
2022-07-15T19:37:00,pth,1.20
2022-07-15T19:39:00,pth,2.40
2022-07-15T19:41:00,pth,4.80
2022-07-15T19:43:00,pth,4.80
2022-07-15T19:45:00,pth,3.60
2022-07-15T19:47:00,pth,2.40
2022-07-15T19:49:00,pth,3.60
2022-07-15T19:52:00,pth,18.00
2022-07-15T19:54:00,pth,14.40
2022-07-15T19:56:00,pth,14.40
2022-07-15T19:58:00,pth,15.60
2022-07-15T19:59:00,pth,7.20
2022-07-15T20:01:00,pth,15.60
2022-07-15T20:03:00,pth,14.40
2022-07-15T20:05:00,pth,15.60
2022-07-15T20:06:00,pth,7.20
2022-07-15T20:07:00,pth,7.20
2022-07-15T20:09:00,pth,15.60
2022-07-15T20:10:00,pth,7.20
2022-07-15T20:11:00,pth,7.20
2022-07-15T20:13:00,pth,14.40
2022-07-15T20:15:00,pth,14.40
2022-07-15T20:17:00,pth,14.40
2022-07-15T20:19:00,pth,14.40
2022-07-15T20:21:00,pth,14.40
2022-07-15T20:22:00,pth,7.20
2022-07-15T20:24:00,pth,14.40
2022-07-15T20:26:00,pth,14.40
2022-07-15T20:28:00,pth,14.40
2022-07-15T20:29:00,pth,6.00
2022-07-15T20:31:00,pth,3.60
2022-07-15T20:33:00,pth,9.60
2022-07-15T20:35:00,pth,14.40
2022-07-15T20:37:00,pth,7.20
2022-07-15T20:39:00,pth,4.80
2022-07-15T20:40:00,pth,7.20
2022-07-15T20:42:00,pth,13.20
2022-07-15T20:44:00,pth,4.80
2022-07-15T20:46:00,pth,8.40
2022-07-15T20:48:00,pth,14.40
2022-07-15T20:50:00,pth,4.80
2022-07-15T20:51:00,pth,2.40
2022-07-15T20:53:00,pth,2.40
2022-07-15T20:54:00,pth,2.40
2022-07-15T20:56:00,pth,3.60
2022-07-15T20:58:00,pth,2.40
2022-07-15T20:59:00,pth,1.20
2022-07-15T21:01:00,pth,3.60
2022-07-15T21:02:00,pth,1.20
2022-07-15T21:04:00,pth,3.60
2022-07-15T21:06:00,pth,2.40
2022-07-15T21:08:00,pth,3.60
2022-07-15T21:10:00,pth,4.80
2022-07-15T21:12:00,pth,7.20
2022-07-15T21:14:00,pth,16.80
2022-07-15T21:16:00,pth,15.60
2022-07-15T21:17:00,pth,7.20
2022-07-15T21:19:00,pth,14.40
2022-07-15T21:21:00,pth,14.40
2022-07-15T21:22:00,pth,7.20
2022-07-15T21:24:00,pth,15.60
2022-07-15T21:26:00,pth,14.40
2022-07-15T21:28:00,pth,13.20
2022-07-15T21:30:00,pth,14.40
2022-07-15T21:31:00,pth,7.20
2022-07-15T21:33:00,pth,14.40
2022-07-15T21:34:00,pth,7.20
2022-07-15T21:36:00,pth,14.40
2022-07-15T21:38:00,pth,13.20
2022-07-15T21:39:00,pth,7.20
2022-07-15T21:41:00,pth,7.20
2022-07-15T21:43:00,pth,14.40
2022-07-15T21:45:00,pth,9.60
2022-07-15T21:46:00,pth,2.40
2022-07-15T21:48:00,pth,13.20
2022-07-15T21:50:00,pth,6.00
2022-07-15T21:52:00,pth,13.20
2022-07-15T21:54:00,pth,7.20
2022-07-15T21:56:00,pth,9.60
2022-07-15T21:57:00,pth,7.20
2022-07-15T21:58:00,pth,2.40
2022-07-15T22:00:00,pth,7.20
2022-07-15T22:01:00,pth,7.20
2022-07-15T22:03:00,pth,6.00
2022-07-15T22:04:00,pth,4.80
2022-07-15T22:06:00,pth,12.00
2022-07-15T22:07:00,pth,2.40
2022-07-15T22:08:00,pth,3.60
2022-07-15T22:10:00,pth,13.20
2022-07-15T22:12:00,pth,2.40
2022-07-15T22:14:00,pth,2.40
2022-07-15T22:16:00,pth,3.60
2022-07-15T22:18:00,pth,2.40
2022-07-15T22:19:00,pth,1.20
2022-07-15T22:20:00,pth,1.20
2022-07-15T22:22:00,pth,2.40
2022-07-15T22:24:00,pth,3.60
2022-07-15T22:26:00,pth,2.40
2022-07-15T22:28:00,pth,3.60
2022-07-15T22:30:00,pth,2.40
2022-07-15T22:31:00,pth,1.20
2022-07-15T22:33:00,pth,2.40
2022-07-15T22:35:00,pth,3.60
2022-07-15T22:37:00,pth,3.60
2022-07-15T22:38:00,pth,1.20
2022-07-15T22:40:00,pth,2.40
2022-07-15T22:41:00,pth,2.40
2022-07-15T22:43:00,pth,2.40
2022-07-15T22:45:00,pth,3.60
2022-07-15T22:46:00,pth,2.40
2022-07-15T22:48:00,pth,2.40
2022-07-15T22:49:00,pth,1.20
2022-07-15T22:50:00,pth,1.20
2022-07-15T22:52:00,pth,3.60
2022-07-15T22:54:00,pth,3.60
2022-07-15T22:55:00,pth,1.20
2022-07-15T22:57:00,pth,3.60
2022-07-15T22:59:00,pth,2.40
2022-07-15T23:00:00,pth,1.20
2022-07-15T23:02:00,pth,3.60
2022-07-15T23:03:00,pth,1.20
2022-07-15T23:05:00,pth,3.60
2022-07-15T23:07:00,pth,2.40
2022-07-15T23:09:00,pth,3.60
2022-07-15T23:11:00,pth,2.40
2022-07-15T23:12:00,pth,2.40
2022-07-15T23:14:00,pth,2.40
2022-07-15T23:16:00,pth,3.60
2022-07-15T23:18:00,pth,3.60
2022-07-15T23:20:00,pth,2.40
